Theta_e
309 312 314 312 312 312 316 316 317 313 326 325 324 323 324 323 325 321 330 333 332 332 331 330 328 325 321 317 316 314 315 318 319 320 319 319 318 319 320 321 319 322 325 329 331 332 332 332 332
308 314 312 304 308 311 311 312 318 324 324 322 322 321 320 324 324 327 331 331 332 331 330 328 325 322 320 317 314 316 318 318 318 317 317 316 315 315 315 315 315 316 318 321 326 328 330 330 331
313 314 307 304 305 308 309 311 314 318 318 320 322 319 318 322 324 328 329 332 331 330 329 326 320 319 316 312 312 316 317 317 316 316 315 314 314 313 313 313 313 313 314 316 319 323 327 328 329
314 307 303 308 309 309 311 310 312 317 320 320 319 320 319 322 325 328 331 331 330 328 327 322 318 317 313 311 316 316 316 315 314 314 313 312 311 306 306 306 308 310 311 312 314 316 320 323 325
312 304 307 308 308 308 308 310 310 311 318 321 320 319 320 325 327 329 331 330 329 326 323 318 317 315 313 316 316 315 315 313 312 311 309 304 304 304 307 308 309 309 311 312 313 313 315 316 321
306 304 307 309 309 310 312 312 311 312 313 320 321 318 320 326 328 328 329 328 327 325 321 317 316 311 312 313 314 313 312 310 305 303 304 305 306 307 308 308 308 310 309 310 310 312 313 314 315
309 304 307 309 310 311 314 311 315 315 315 318 317 317 320 321 327 327 326 326 324 322 319 317 314 310 308 308 306 306 305 303 303 305 305 305 305 307 306 304 305 307 308 310 310 309 310 312 313
306 306 312 310 309 313 313 313 314 314 314 313 317 318 319 318 326 326 324 324 322 321 319 316 312 309 307 305 304 303 303 304 306 307 307 306 303 302 302 303 304 307 308 309 310 310 310 310 311
305 307 308 309 310 312 308 311 311 311 314 312 314 314 316 321 325 324 321 320 320 319 319 316 312 309 308 308 307 304 306 307 308 308 307 306 302 302 303 304 305 307 307 308 310 311 311 312 310
305 304 307 307 308 308 308 308 308 310 308 309 311 318 321 323 323 320 319 318 318 318 317 316 314 311 311 310 307 307 308 308 308 307 306 303 302 301 303 304 305 306 306 306 307 309 309 310 312
307 306 307 309 308 308 308 307 306 309 308 306 308 318 319 320 321 320 319 319 319 318 316 315 314 312 311 309 307 308 308 308 308 307 305 302 302 303 304 305 306 307 307 307 308 309 309 310 312
311 308 308 309 309 308 308 307 306 305 305 307 306 313 317 318 318 319 320 320 319 318 317 315 313 311 310 309 308 309 309 308 308 305 302 302 303 304 304 305 305 306 306 306 307 307 307 309 311
310 310 309 308 307 306 306 306 306 304 303 303 303 308 316 316 317 319 320 321 320 318 318 316 314 312 311 309 309 309 309 308 306 303 301 304 304 304 304 304 305 306 307 307 307 308 309 309 309
309 309 308 307 307 307 308 306 307 305 304 305 303 304 308 314 315 317 319 320 321 320 318 317 314 312 311 310 310 310 309 307 303 301 304 304 304 303 303 304 305 306 306 307 308 309 310 309 311
309 308 306 306 306 307 306 303 304 305 303 305 304 305 305 305 312 314 317 319 321 321 320 316 313 312 311 310 310 309 307 303 301 303 304 304 303 303 304 304 306 307 308 308 308 310 311 310 311
307 309 306 307 306 307 306 304 306 305 304 305 304 302 303 305 305 309 314 317 319 320 319 315 313 312 311 310 310 307 304 300 303 304 304 304 303 304 305 306 307 308 307 307 309 310 311 311 312
307 303 307 308 306 308 308 305 305 307 307 306 303 303 303 303 305 307 310 317 319 319 317 314 313 312 311 309 308 305 300 301 304 304 304 304 304 305 306 306 308 308 308 309 310 310 311 311 312
305 305 305 306 308 308 308 307 306 305 304 303 301 300 300 301 303 307 313 318 318 317 315 314 313 312 310 308 305 301 303 304 304 305 304 304 305 306 306 307 308 308 308 310 312 312 311 310 311
305 306 305 306 307 307 306 305 304 303 301 300 300 300 303 302 306 312 315 317 316 315 314 314 312 309 308 305 301 301 303 304 304 304 304 305 306 306 306 308 308 309 309 310 312 312 311 310 311
306 307 306 305 306 305 304 305 306 304 304 303 302 301 302 305 308 309 312 314 314 313 312 311 310 308 306 303 302 302 304 304 304 305 305 305 306 305 306 307 308 309 310 310 312 312 311 311 312
307 306 306 306 306 305 306 306 308 309 308 304 302 301 302 306 307 307 308 311 312 311 310 309 308 307 304 302 301 301 304 303 304 305 305 305 305 305 306 307 308 309 310 311 311 313 312 312 311
307 305 305 306 305 304 306 308 306 306 309 306 303 301 301 303 305 306 306 307 310 310 309 309 307 304 303 300 300 302 304 304 305 305 304 305 305 306 306 306 307 310 311 311 312 314 312 312 310
307 306 305 306 305 307 306 306 305 306 309 309 304 303 301 302 304 305 306 308 309 309 308 307 305 303 301 300 301 303 304 304 304 304 304 305 305 306 306 306 308 310 312 312 312 312 312 312 311
306 311 309 306 307 304 305 305 305 308 309 309 306 303 302 302 303 304 306 308 307 307 307 305 303 302 300 299 302 303 303 304 304 304 304 305 305 305 305 306 308 310 313 312 313 313 313 312 310
307 307 306 305 299 307 305 306 305 308 308 307 305 302 302 301 303 303 303 304 305 304 304 303 302 301 300 299 301 303 303 303 304 305 304 304 305 305 305 307 308 311 312 312 313 314 312 311 310
308 307 309 307 306 309 306 308 309 307 304 303 303 302 302 302 302 303 303 304 304 304 303 303 302 301 300 299 301 302 303 303 304 304 304 303 304 304 305 307 309 311 312 313 313 314 313 311 311
308 308 307 307 299 308 309 308 307 304 303 302 303 303 302 302 302 303 303 304 304 304 303 303 302 301 300 299 300 302 302 302 303 303 303 303 304 304 306 307 308 311 312 312 313 313 312 311 312
305 305 306 305 304 308 308 310 309 306 304 303 302 302 302 301 301 302 302 304 305 305 304 303 302 302 301 300 300 301 302 302 302 303 303 303 304 305 306 307 308 310 312 311 313 312 313 312 311
306 306 306 308 309 311 311 312 306 305 304 304 305 305 304 301 301 300 301 304 305 305 304 304 302 301 301 300 299 301 301 302 302 303 303 303 304 306 306 307 308 310 312 312 312 312 311 311 310
304 306 308 312 306 308 311 313 307 305 304 305 305 306 304 302 300 297 300 302 303 304 303 303 303 301 301 300 299 300 301 301 302 302 302 303 305 306 306 307 308 310 312 312 312 312 311 310 309
Wind_Speed
8 7 6 4 4 4 3 5 2 3 2 2 1 6 5 2 1 3 3 19 13 22 20 18 16 13 10 9 7 5 5 7 8 8 7 7 6 6 6 5 2 4 5 3 5 7 6 5 6
6 3 2 2 4 2 5 5 3 3 4 2 3 4 3 1 3 7 9 18 21 21 20 18 15 12 10 9 7 7 8 8 8 7 7 7 6 6 6 6 6 5 5 5 5 6 7 6 5
3 2 3 4 3 4 3 3 4 3 3 3 2 3 5 5 1 16 8 24 21 19 20 18 15 12 9 7 7 9 9 9 7 7 7 6 6 6 6 6 6 7 6 6 6 6 6 7 6
2 5 4 4 4 6 4 4 4 4 1 2 5 4 3 2 7 10 25 25 21 19 19 18 15 12 10 8 9 9 9 8 7 6 6 5 5 5 5 6 6 6 6 6 6 7 7 8 7
4 3 3 1 4 4 5 2 3 2 2 3 2 5 4 3 8 22 28 25 21 20 18 17 14 11 10 10 10 10 9 7 6 6 5 5 6 6 6 6 6 6 6 7 7 7 8 9 11
4 3 3 2 5 4 3 2 2 3 2 1 1 4 3 10 20 23 24 22 18 19 17 16 13 11 11 10 10 9 7 5 4 4 5 6 6 5 7 8 9 8 11 11 10 10 9 10 11
6 4 4 4 4 4 3 4 2 1 1 2 2 4 1 5 16 22 23 20 20 17 17 16 14 12 10 9 8 6 5 3 3 4 6 7 7 8 8 8 11 10 10 11 11 11 12 11 11
4 4 1 4 3 3 3 5 3 2 2 4 2 4 5 7 20 20 21 22 20 17 15 14 13 11 9 8 6 4 3 2 4 5 7 9 10 9 9 9 11 11 11 11 12 12 11 11 12
3 4 3 4 3 2 3 2 2 2 1 3 1 3 3 24 24 21 22 20 20 17 14 13 12 11 9 7 5 4 3 3 3 4 7 10 10 9 8 8 8 8 10 12 12 12 13 11 10
4 4 8 4 1 3 2 2 3 3 2 4 3 4 13 26 27 23 22 20 22 20 17 13 12 10 9 7 5 4 4 3 3 4 7 9 10 9 7 7 7 8 8 9 10 10 11 11 11
4 6 4 2 2 2 2 3 2 2 5 9 6 6 7 9 14 18 21 27 27 21 18 16 12 10 8 7 5 4 4 3 1 4 8 9 10 7 7 7 8 9 9 9 9 10 11 12 9
3 7 4 3 2 2 3 2 6 6 9 1 5 6 7 9 9 18 21 25 23 21 19 18 15 13 11 8 6 4 5 3 3 6 7 9 8 7 7 8 8 8 9 9 11 12 11 11 9
4 4 3 2 5 6 2 6 6 11 12 11 8 5 10 9 12 20 25 25 23 22 20 18 16 14 11 9 7 7 4 3 4 4 7 8 8 6 7 8 7 8 10 12 13 13 12 11 11
3 2 6 6 5 4 4 2 1 8 5 4 7 10 10 13 17 17 20 23 24 23 21 19 17 14 11 10 8 5 3 3 2 4 4 7 8 8 7 7 7 10 14 12 14 14 12 10 9
1 5 7 6 3 5 1 7 8 11 5 4 5 5 6 11 16 21 26 25 25 25 23 21 17 14 12 9 8 5 3 1 3 3 4 7 9 9 6 8 9 14 16 14 12 12 10 6 5
0 2 3 1 5 2 4 8 4 6 6 8 7 7 7 8 11 18 19 22 20 23 25 23 18 15 12 9 7 5 2 1 2 2 4 6 9 6 8 9 13 15 13 12 14 15 12 5 5
1 3 5 4 5 2 3 7 5 3 3 7 8 8 6 6 5 11 14 18 21 25 27 23 19 16 13 10 7 4 1 2 2 3 4 7 7 7 9 11 12 13 11 11 11 11 10 3 7
7 5 5 4 3 2 3 13 12 10 8 12 10 9 8 8 7 10 15 18 23 24 24 22 18 15 13 10 7 4 3 4 3 3 4 5 6 8 9 8 10 11 9 11 13 8 7 5 10
5 2 2 2 2 2 6 9 15 10 8 10 8 8 3 7 3 14 19 22 24 24 22 19 17 16 14 12 8 4 4 3 4 4 4 4 6 9 7 9 9 10 9 11 10 1 5 10 10
2 1 4 3 0 2 6 14 13 7 5 5 6 7 7 6 6 10 19 23 26 24 19 17 15 15 13 10 7 3 6 5 3 4 3 4 6 8 8 10 10 10 9 9 8 3 0 3 3
4 5 3 3 1 1 5 9 5 1 3 6 7 5 4 8 9 7 11 21 22 21 19 17 15 13 11 9 7 6 6 6 5 3 2 3 5 7 8 10 11 11 10 8 6 4 2 2 7
5 6 5 3 3 3 2 5 4 4 1 4 4 5 6 6 5 5 9 16 21 18 16 16 15 13 11 9 7 7 6 5 5 4 1 1 3 5 7 9 11 10 11 7 3 3 2 5 7
5 3 7 3 3 3 2 2 8 2 1 3 5 6 6 7 7 7 9 19 18 19 19 17 15 13 11 9 7 7 7 7 7 4 2 0 2 3 5 8 9 9 11 7 3 3 5 7 7
8 6 8 5 3 1 6 6 6 3 2 1 2 4 7 7 7 7 12 16 15 16 18 18 16 13 11 9 8 8 8 9 7 6 2 1 1 3 5 7 8 9 8 7 2 3 5 3 12
4 6 3 3 3 5 2 4 8 3 1 2 5 7 7 7 7 7 8 13 17 18 18 17 16 14 12 10 9 9 8 8 7 6 4 2 2 3 4 6 8 8 6 6 3 7 8 8 12
6 6 5 8 4 3 1 6 5 2 3 3 1 6 5 6 6 7 9 17 20 20 19 18 17 15 13 11 10 9 9 9 8 6 5 3 3 4 3 4 6 7 5 5 6 7 6 8 12
6 5 3 6 2 3 4 6 5 2 3 3 4 5 6 7 8 9 10 18 20 20 20 20 18 15 14 12 11 10 10 10 9 7 5 4 3 4 3 3 4 4 3 4 5 9 8 12 11
3 4 3 2 3 3 4 4 5 6 5 3 3 3 4 5 6 7 8 18 21 20 19 18 17 17 14 13 12 11 11 10 8 7 5 5 4 4 4 2 2 3 3 4 5 10 11 12 11
3 3 2 4 4 5 3 5 4 8 8 8 5 3 3 4 5 6 8 17 18 18 18 19 19 18 16 14 13 12 11 11 10 8 7 5 4 4 4 2 0 1 3 6 8 11 14 12 11
2 5 6 5 5 2 3 5 1 8 8 7 5 3 4 5 4 2 7 12 15 17 17 19 19 19 17 15 14 13 11 11 11 10 8 7 5 4 4 3 2 1 2 9 11 11 12 16 16
Wind_Direction
311 310 322 32 56 65 262 261 267 351 44 259 130 97 134 88 161 215 126 186 176 160 164 162 162 153 147 142 137 136 129 114 105 95 86 75 65 63 51 36 330 315 302 295 322 340 351 325 290
329 7 49 86 91 73 275 262 154 203 190 164 90 94 74 176 134 135 126 158 161 161 167 168 159 148 144 142 139 128 114 107 102 96 85 74 63 53 46 36 22 4 342 319 288 284 312 331 328
341 17 85 100 116 180 204 239 221 233 205 141 98 69 129 172 316 161 186 160 158 162 169 167 161 154 150 149 138 125 120 116 108 95 84 68 55 43 31 22 13 2 356 349 337 320 295 313 311
28 23 32 95 218 249 228 241 212 182 233 60 153 97 72 244 176 183 162 162 160 160 166 167 160 158 160 154 139 131 124 117 107 95 78 57 33 14 6 357 348 348 342 338 330 320 301 291 288
57 59 65 6 263 255 263 272 243 165 136 193 168 177 140 5 152 156 161 164 161 159 165 167 166 161 156 147 142 137 132 124 107 85 55 23 5 357 358 351 342 334 333 328 318 304 290 266 261
47 98 70 228 257 269 264 266 257 29 43 358 91 108 177 152 144 155 163 166 168 162 166 169 170 168 163 155 146 139 132 119 92 45 32 20 12 8 1 356 356 348 336 327 318 308 297 287 272
119 95 195 210 252 291 248 327 104 136 38 215 245 124 160 178 160 163 166 169 166 166 171 176 176 178 171 160 159 153 141 118 67 40 32 23 19 13 356 345 338 334 332 331 323 311 302 292 280
108 95 215 244 220 253 300 327 173 114 266 313 168 197 221 196 167 163 170 168 171 173 179 179 180 181 174 172 164 160 132 91 61 34 19 12 356 349 345 345 344 341 335 331 326 317 305 294 290
99 71 209 246 217 221 333 352 318 292 285 323 239 165 277 156 161 155 158 164 172 175 182 181 182 185 176 163 154 148 132 94 43 27 9 355 358 356 353 352 345 341 333 329 327 324 320 304 296
99 141 217 215 211 216 304 325 328 352 337 280 287 44 128 154 163 157 165 169 177 180 185 190 186 187 179 164 150 143 121 102 49 3 348 349 358 357 356 356 348 343 339 330 332 328 325 313 303
176 199 216 249 206 196 232 273 311 243 258 226 221 160 155 165 175 173 179 183 189 185 184 188 196 191 186 185 167 143 132 132 46 333 336 347 353 0 2 359 1 1 356 350 347 338 335 337 308
210 239 235 267 252 253 259 290 298 214 226 237 174 170 178 186 193 192 193 194 193 191 191 188 191 190 185 187 175 158 159 167 309 330 334 340 348 4 12 6 11 7 3 352 337 329 327 312 312
209 268 265 274 287 263 296 243 243 262 253 253 240 198 196 207 209 208 206 204 200 196 194 195 192 194 190 181 174 163 186 267 308 329 334 350 356 12 14 19 15 6 357 347 337 332 331 325 310
198 260 277 287 274 265 251 242 92 266 258 253 208 234 209 208 208 209 209 206 202 201 197 193 193 188 186 181 174 194 219 271 317 337 357 358 1 5 5 21 4 4 355 348 342 342 338 329 331
188 312 312 239 232 224 67 283 231 247 290 271 286 257 218 217 209 212 210 206 202 201 192 188 183 181 185 182 191 203 216 287 351 3 20 8 5 12 33 359 7 360 353 344 353 356 357 344 332
100 87 311 199 140 181 119 274 278 305 179 237 251 238 240 239 217 219 212 207 197 189 183 176 177 175 182 182 192 195 204 26 32 35 30 10 7 23 357 356 4 359 6 7 6 2 352 344 343
316 222 209 299 196 113 171 271 276 8 326 290 269 268 258 244 227 209 201 191 179 177 172 168 173 173 177 181 189 186 190 105 78 47 12 22 31 0 353 355 7 13 19 22 11 358 348 11 49
193 210 228 232 195 164 236 263 275 268 267 255 261 265 257 238 214 170 164 166 165 169 168 165 167 170 171 178 180 168 133 110 83 24 17 54 22 350 344 4 19 16 13 17 14 22 36 86 92
145 171 211 228 187 196 236 268 280 280 253 264 247 243 161 122 98 136 142 152 155 159 161 167 169 166 174 173 171 179 162 144 108 72 34 46 19 345 349 0 11 5 11 8 13 36 88 101 90
298 114 255 289 236 211 313 289 274 284 267 284 244 166 147 117 102 108 138 150 156 157 162 168 173 170 176 185 187 175 159 152 128 118 71 18 9 352 354 355 357 349 355 16 4 77 166 119 31
222 191 203 208 332 244 321 295 328 30 90 37 51 103 106 140 137 132 136 152 157 159 166 169 171 176 179 183 182 160 151 141 146 143 118 360 358 354 353 350 349 351 347 15 351 22 195 151 54
193 199 168 146 81 229 8 273 308 331 48 73 108 135 155 154 134 139 139 155 163 163 167 169 175 180 182 182 181 175 160 159 160 149 138 8 350 352 348 347 344 350 357 17 16 25 101 148 123
210 143 157 119 106 44 284 73 271 319 171 205 187 188 188 182 166 161 159 165 169 165 170 172 178 184 187 188 187 188 164 156 151 153 158 148 344 343 346 347 343 354 5 11 49 90 111 104 140
146 81 49 54 79 11 223 160 280 226 202 177 176 194 189 180 174 162 164 166 167 170 172 174 181 189 193 195 193 188 181 163 162 154 191 184 279 329 342 349 340 353 2 10 68 158 171 110 141
90 96 26 4 4 215 333 134 247 248 252 202 201 201 196 179 166 160 154 162 167 175 176 181 188 196 196 198 200 191 190 176 172 169 181 226 258 294 340 354 345 357 356 16 94 154 143 127 138
177 166 158 194 191 210 29 222 248 225 335 71 37 169 165 171 176 176 175 175 178 183 186 193 196 201 201 205 201 196 193 187 181 184 176 212 259 280 321 4 344 3 7 53 115 155 139 137 142
182 198 164 104 35 71 207 274 292 111 61 66 115 151 190 188 185 185 182 186 190 193 197 201 204 208 208 208 211 203 197 193 192 188 190 188 229 268 291 4 349 1 38 90 116 146 138 135 144
166 165 83 4 135 228 281 276 238 201 181 146 134 186 223 206 200 195 193 197 205 206 206 208 213 216 212 210 216 213 204 199 199 197 199 190 203 248 280 342 15 345 93 134 140 143 149 149 150
152 191 195 127 156 167 161 250 219 187 170 160 163 129 60 194 215 212 212 213 213 214 212 213 215 216 216 215 216 216 211 207 206 204 194 195 206 234 265 285 344 301 146 153 163 152 157 166 161
302 204 182 150 225 206 150 264 122 149 152 148 160 104 65 68 41 285 224 215 209 213 214 215 217 218 218 219 218 218 216 211 215 210 198 201 210 230 253 255 196 240 239 169 171 173 169 166 164